Regional Weather Roundup
Issued by NWS

Home | Current Version | Previous Version | Graphics & Text | Print | Product List | Glossary On
Versions: 1 2 3 4 5 6 7 8 9 10 11 12 13 14 15 16 17 18 19 20 21 22 23 24 25 26 27 28 29 30 31 32 33 34 35 36 37 38 39 40 41 42 43 44 45 46 47 48 49 50
000
ASUS43 KLOT 260804
RWRIL

ILLINOIS REGIONAL WEATHER ROUNDUP
NATIONAL WEATHER SERVICE CHICAGO/ROMEOVILLE IL
300 AM CDT TUE SEP 26 2017

NOTE: "FAIR" INDICATES FEW OR NO CLOUDS BELOW 12,000 FEET WITH NO
SIGNIFICANT WEATHER AND/OR OBSTRUCTIONS TO VISIBILITY.

* THESE STATIONS ARE NOT UNDER NWS QUALITY CONTROL. THEY ALSO MAY NOT
  REPORT WEATHER SUCH AS PRECIPITATION OR FOG.

ILZ001-002-007-009-015-016-024-260900-
NORTHWEST ILLINOIS

CITY           SKY/WX    TMP DP  RH WIND       PRES   REMARKS
MOLINE         LGT RAIN  71  67  87 NE7       29.91F
STERLING*      CLEAR     63  61  93 E3        29.93S
SAVANNA*       CLOUDY    67  64  90 N3        29.92F
$$

ILZ003-004-008-010-011-017-018-260900-
NORTH CENTRAL ILLINOIS

CITY           SKY/WX    TMP DP  RH WIND       PRES   REMARKS
ROCKFORD       PTCLDY    67  59  75 CALM      29.94S
FREEPORT*      PTCLDY    63  61  92 CALM      29.96S
ROCHELLE*      CLEAR     66  59  78 S3        29.93F
DE KALB*       CLEAR     65  59  82 S6        29.94F
PERU*          CLEAR     69  59  70 S3        29.94R
$$

ILZ005-006-012>014-019>023-260900-
NORTHEAST ILLINOIS

CITY           SKY/WX    TMP DP  RH WIND       PRES   REMARKS
CHICAGO-OHARE  PTCLDY    71  57  61 S3        29.93S
CHICAGO-MIDWAY CLEAR     75  57  53 S3        29.93F
AURORA         CLEAR     64  62  93 CALM      29.94F
LANSING*       CLEAR     69  59  69 CALM      29.95S
JOLIET*        CLEAR     66  62  85 CALM      29.94S
WAUKEGAN       MOCLDY    68  61  78 SW3       29.92F
DUPAGE AIRPORT CLEAR     68  60  75 S3        29.93F
KANKAKEE*      CLEAR     65  61  87 SE5       29.96S
WHEELING       CLEAR     69  62  78 CALM      29.94S
MORRIS*        CLEAR     67  60  78 S3        29.93S
ROMEOVILLE*    CLEAR     67  58  73 S6        29.94F
NORTHERLY ISL    N/A     75  58  55 CALM        N/A
$$

LMZ740>746-260900-
SOUTHERN LAKE MICHIGAN

STATION/POSITION SKY/WX   TEMP    WIND        PRES    VSBY  WAVE
                          AIR SEA DIR/SP/G                  HT/PER
                          (F)     (DEG/KT/KT) (MB)    (MI)  (FT/S)
SOUTHERN BUOY              74 71  150/  8/ 10 1013.6          0
WILMETTE HARBOR            72 71  150/  6/  6   N/A           0
HARRISON CRIB              77     180/ 10/ 10   N/A
BURNHAM HARBOR             74                   N/A
CALUMET HARBOR             75     180/  6/  8 1013.2F
BURNS HARBOR               74     180/  6/ 10 1014.2F
MICHIGAN CITY              73     140/  9/ 11   N/A
MICHIGAN CITY 6N           72 71  170/  6/  8   N/A           1
ST. JOSEPH                 73 71  180/  6/  8 1013.9F         1
$$

ILZ025>027-034>036-040-047-049-050-058-095>099-260900-
WEST-CENTRAL ILLINOIS

CITY           SKY/WX    TMP DP  RH WIND       PRES   REMARKS
QUINCY         CLOUDY    71  65  81 S5        29.93S
GALESBURG*     CLOUDY    68  65  89 CALM      29.95R
MACOMB*        CLOUDY    69  65  84 W3        29.95S
JACKSONVILLE*  CLOUDY    73  62  66 S6        29.94S
PITTSFIELD*    CLOUDY    69  64  83 S3        29.95S
$$

ILZ028>032-037-038-041>044-048-051>054-059>061-260900-
CENTRAL ILLINOIS

CITY           SKY/WX    TMP DP  RH WIND       PRES   REMARKS
PONTIAC        CLEAR     66  64  96 S5        29.95F
BLOOMINGTON    CLEAR     68  61  78 S7        29.97S
DECATUR        CLEAR     68  61  78 S5        29.96F
PEORIA         MOCLDY    72  64  76 S5        29.94S
LACON*         CLEAR     71  62  74 SE3       29.93R
LINCOLN*       CLEAR     66  63  90 CALM      29.95S
SPRINGFIELD    CLEAR     74  63  68 SW6       29.95S
TAYLORVILLE    CLEAR     65  61  86 S5        29.96F
$$

ILZ033-039-045-046-055>057-062-063-260900-
EAST-CENTRAL ILLINOIS

CITY           SKY/WX    TMP DP  RH WIND       PRES   REMARKS
CHAMPAIGN        N/A     68  60  75 S7        29.97S
RANTOUL*       CLEAR     68  64  85 CALM      29.97S
MATTOON        CLEAR     71  65  81 S5        29.96F
PARIS*         CLEAR     67  64  88 CALM      29.99S
$$

ILZ079-100>102-260900-
SOUTHWEST ILLINOIS

CITY           SKY/WX    TMP DP  RH WIND       PRES   REMARKS
ALTON          PTCLDY    68  64  87 CALM      29.96S
BELLEVILLE     CLEAR     65  63  94 CALM      29.94F
CAHOKIA*       PTCLDY    66  61  84 CALM      29.95S
SPARTA*        CLEAR     66  62  86 CALM      29.97F
$$

ILZ064>066-069>071-074>076-080>082-084>086-088>090-092>094-260900-
SOUTH-CENTRAL ILLINOIS

CITY           SKY/WX    TMP DP  RH WIND       PRES   REMARKS
CARBONDALE     CLEAR     64  64 100 CALM      29.96S
CAIRO*         CLEAR     64  64 100 CALM      29.96S
EFFINGHAM*     MOCLDY    67  64  89 CALM      29.98F
MARION         CLEAR     70  68  94 CALM      29.97S
MT. VERNON       N/A     64  63  96 CALM      29.97S
CENTRALIA*     CLEAR     65  63  93 CALM      29.96S
SALEM*         CLEAR     66  62  87 CALM      29.97S
METROPOLIS*    CLEAR     64  64  97 CALM      29.97S FOG
$$

ILZ067-068-072-073-078-083-087-091-260900-
SOUTHEAST ILLINOIS

CITY           SKY/WX    TMP DP  RH WIND       PRES   REMARKS
LAWRENCEVILLE  CLEAR     69  67  93 CALM      29.97S
FLORA*         PTCLDY    67  64  89 CALM      29.97S
FAIRFIELD*     CLEAR     65  62  89 CALM      29.96S
HARRISBURG*    CLEAR     65  64  97 CALM      29.97S
ROBINSON*      CLEAR     63  62  97 CALM      29.98S
CARMI*         CLEAR     64  63  97 CALM      29.96S
$$

ABBREVIATIONS USED IN REMARKS
   TC - TEMPERATURE IN CELSIUS
  WCI - WIND CHILL INDEX
   HX - HEAT INDEX
  VSB - VISIBILITY
$$




USA.gov is the U.S. government's official web portal to all federal, state and local government web resources and services.